This is the latest recevied weather packets stored in our database for station/object KN6WGU. If no packets are shown the sender has not sent any weather packets the latest 10 day(s).
| Time | Temp. | Humidity | Pressure | Rain* | Wind** | Luminosity | Snow |
|---|---|---|---|---|---|---|---|
| 1787490727 | 20° C | 80% | 1006.3 hPa | 0 mm | - | 113 W/m² | - |
| 1787490426 | 20° C | 79% | 1006.4 hPa | 0 mm | - | 45 W/m² | - |
| 1787490124 | 20° C | 79% | 1006.3 hPa | 0 mm | - | 93 W/m² | - |
| 1787489819 | 19.44° C | 78% | 1006.3 hPa | 0 mm | - | 84 W/m² | - |
| 1787489514 | 19.44° C | 78% | 1006.2 hPa | 0 mm | - | 75 W/m² | - |
| 1787489211 | 19.44° C | 79% | 1005.9 hPa | 0 mm | - | 79 W/m² | - |
| 1787488906 | 19.44° C | 79% | 1006.2 hPa | 0 mm | - | 71 W/m² | - |
| 1787488602 | 19.44° C | 80% | 1006.1 hPa | 0 mm | - | 56 W/m² | - |
| 1787488298 | 19.44° C | 80% | 1006.2 hPa | 0 mm | - | 66 W/m² | - |
| 1787487995 | 19.44° C | 80% | 1006.1 hPa | 0 mm | - | 74 W/m² | - |
| 1787487691 | 19.44° C | 79% | 1005.9 hPa | 0 mm | - | 60 W/m² | - |
| 1787487387 | 19.44° C | 81% | 1006 hPa | 0 mm | - | 50 W/m² | - |
| 1787487084 | 19.44° C | 81% | 1005.9 hPa | 0 mm | - | 45 W/m² | - |
| 1787486783 | 19.44° C | 81% | 1005.8 hPa | 0 mm | - | 49 W/m² | - |
| 1787486478 | 19.44° C | 81% | 1005.9 hPa | 0 mm | - | 53 W/m² | - |
| 1787486177 | 19.44° C | 80% | 1005.7 hPa | 0 mm | - | 33 W/m² | - |
| 1787485873 | 19.44° C | 82% | 1005.8 hPa | 0 mm | - | 42 W/m² | - |
| 1787485564 | 18.89° C | 81% | 1005.8 hPa | 0 mm | - | 28 W/m² | - |
| 1787485258 | 18.89° C | 81% | 1005.8 hPa | 0 mm | - | 42 W/m² | - |
| 1787484953 | 18.89° C | 82% | 1005.8 hPa | 0 mm | - | 20 W/m² | - |
| 1787484651 | 18.89° C | 81% | 1005.6 hPa | 0 mm | - | 16 W/m² | - |
| 1787484346 | 18.89° C | 82% | 1005.7 hPa | 0 mm | - | 13 W/m² | - |
| 1787484043 | 19.44° C | 83% | 1005.5 hPa | 0 mm | - | 11 W/m² | - |
| 1787483737 | 18.89° C | 83% | 1005.5 hPa | 0 mm | - | 6 W/m² | - |
| 1787483435 | 19.44° C | 84% | 1005.6 hPa | 0 mm | - | 7 W/m² | - |
* Rain latest hour (hover to see other rain measurements)
** Current wind speed in m/s (hover to see current wind gust speed)